Time,TemperatureF,DewpointF,PressureIn,WindDirection,WindDirectionDegrees,WindSpeedMPH,WindSpeedGustMPH,Humidity,HourlyPrecipIn,Conditions,Clouds,dailyrainin,SoftwareType,DateUTC
2013-01-26 00:00:00,47.9,34.2,30.09,SSW,193,0.0,0.0,59,0.00,,---,0.00,VWS V14.01,2013-01-26 06:00:00,
2013-01-26 00:05:00,48.0,34.8,30.09,SSW,193,0.0,0.0,60,0.00,,---,0.00,VWS V14.01,2013-01-26 06:05:00,
2013-01-26 00:10:00,48.0,34.8,30.09,SSW,193,0.0,0.0,60,0.00,,---,0.00,VWS V14.01,2013-01-26 06:10:00,
2013-01-26 00:15:00,47.9,34.7,30.06,SSW,193,0.0,0.0,60,0.00,,---,0.00,VWS V14.01,2013-01-26 06:15:00,
2013-01-26 00:20:00,47.9,34.7,30.06,SSW,193,0.0,0.0,60,0.00,,---,0.00,VWS V14.01,2013-01-26 06:20:00,
2013-01-26 00:25:00,47.7,34.5,30.06,SSW,193,0.0,0.0,60,0.00,,---,0.00,VWS V14.01,2013-01-26 06:25:00,
2013-01-26 00:30:00,47.7,34.5,30.06,SSW,193,0.0,0.0,60,0.00,,---,0.00,VWS V14.01,2013-01-26 06:30:00,
2013-01-26 00:35:00,47.7,34.9,30.06,SSW,193,0.0,0.0,61,0.00,,---,0.00,VWS V14.01,2013-01-26 06:35:00,
2013-01-26 00:40:00,47.7,34.9,30.06,SSW,193,0.0,0.0,61,0.00,,---,0.00,VWS V14.01,2013-01-26 06:40:00,
2013-01-26 00:45:00,48.0,35.2,30.06,SSW,193,0.0,0.0,61,0.00,,---,0.00,VWS V14.01,2013-01-26 06:45:00,
2013-01-26 00:50:00,48.0,35.2,30.09,SSW,193,0.0,0.0,61,0.00,,---,0.00,VWS V14.01,2013-01-26 06:50:00,
2013-01-26 00:55:00,47.9,35.1,30.09,SSW,193,0.0,0.0,61,0.00,,---,0.00,VWS V14.01,2013-01-26 06:55:00,
2013-01-26 01:00:00,47.7,34.9,30.09,SSW,193,0.0,0.0,61,0.00,,---,0.00,VWS V14.01,2013-01-26 07:00:00,
2013-01-26 01:05:00,47.7,35.3,30.09,SSW,193,0.0,0.0,62,0.00,,---,0.00,VWS V14.01,2013-01-26 07:05:00,
2013-01-26 01:10:00,47.7,35.3,30.09,SSW,193,0.0,0.0,62,0.00,,---,0.00,VWS V14.01,2013-01-26 07:10:00,
2013-01-26 01:15:00,47.5,35.1,30.06,SSW,193,0.0,0.0,62,0.00,,---,0.00,VWS V14.01,2013-01-26 07:15:00,
2013-01-26 01:20:00,47.5,35.1,30.06,SSW,193,0.0,0.0,62,0.00,,---,0.00,VWS V14.01,2013-01-26 07:20:00,
2013-01-26 01:25:00,47.7,35.7,30.06,SSW,193,0.0,0.0,63,0.00,,---,0.00,VWS V14.01,2013-01-26 07:25:00,
2013-01-26 01:30:00,47.9,35.9,30.06,SSW,193,0.0,0.0,63,0.00,,---,0.00,VWS V14.01,2013-01-26 07:30:00,
2013-01-26 01:35:00,47.9,35.9,30.06,SSW,193,0.0,0.0,63,0.00,,---,0.00,VWS V14.01,2013-01-26 07:35:00,
2013-01-26 01:40:00,47.9,35.9,30.06,SSW,193,0.0,0.0,63,0.00,,---,0.00,VWS V14.01,2013-01-26 07:40:00,
2013-01-26 01:45:00,47.9,35.9,30.06,SSW,204,0.0,0.0,63,0.00,,---,0.00,VWS V14.01,2013-01-26 07:45:00,
2013-01-26 01:50:00,51.5,41.3,30.06,SSW,200,0.0,0.0,68,0.00,,---,0.00,VWS V14.01,2013-01-26 07:50:00,
2013-01-26 01:55:00,52.5,41.9,30.06,South,187,3.6,3.6,67,0.00,,---,0.00,VWS V14.01,2013-01-26 07:55:00,
2013-01-26 02:00:00,53.6,42.9,30.06,SW,219,3.6,3.6,67,0.00,,---,0.00,VWS V14.01,2013-01-26 08:00:00,
2013-01-26 02:05:00,53.6,42.9,30.06,SSW,210,4.0,4.0,67,0.00,,---,0.00,VWS V14.01,2013-01-26 08:05:00,
2013-01-26 02:10:00,54.3,43.2,30.06,SSW,210,4.0,4.0,66,0.00,,---,0.00,VWS V14.01,2013-01-26 08:10:00,
2013-01-26 02:15:00,54.9,44.1,30.06,SSW,210,4.0,4.0,67,0.00,,---,0.00,VWS V14.01,2013-01-26 08:15:00,
2013-01-26 02:20:00,54.9,44.1,30.06,SW,222,0.0,0.0,67,0.00,,---,0.00,VWS V14.01,2013-01-26 08:20:00,
2013-01-26 02:25:00,54.7,43.6,30.06,SW,222,0.0,0.0,66,0.00,,---,0.00,VWS V14.01,2013-01-26 08:25:00,
2013-01-26 02:30:00,54.7,43.6,30.06,SW,222,0.0,0.0,66,0.00,,---,0.00,VWS V14.01,2013-01-26 08:30:00,
2013-01-26 02:35:00,53.6,42.5,30.06,SW,222,0.0,0.0,66,0.00,,---,0.00,VWS V14.01,2013-01-26 08:35:00,
2013-01-26 02:40:00,53.6,42.5,30.06,SW,222,0.0,0.0,66,0.00,,---,0.00,VWS V14.01,2013-01-26 08:40:00,
2013-01-26 02:45:00,52.5,41.5,30.06,SW,222,0.0,0.0,66,0.00,,---,0.00,VWS V14.01,2013-01-26 08:45:00,
2013-01-26 02:50:00,52.2,41.2,30.06,SW,222,0.0,0.0,66,0.00,,---,0.00,VWS V14.01,2013-01-26 08:50:00,
2013-01-26 02:55:00,52.2,41.2,30.06,SW,222,0.0,0.0,66,0.00,,---,0.00,VWS V14.01,2013-01-26 08:55:00,
2013-01-26 03:00:00,50.9,40.0,30.06,SW,222,0.0,0.0,66,0.00,,---,0.00,VWS V14.01,2013-01-26 09:00:00,
2013-01-26 03:05:00,50.6,40.0,30.06,SW,222,0.0,0.0,67,0.00,,---,0.00,VWS V14.01,2013-01-26 09:05:00,
2013-01-26 03:10:00,50.0,39.9,30.06,SW,222,0.0,0.0,68,0.00,,---,0.00,VWS V14.01,2013-01-26 09:10:00,
2013-01-26 03:15:00,49.8,39.7,30.06,SW,222,0.0,0.0,68,0.00,,---,0.00,VWS V14.01,2013-01-26 09:15:00,
2013-01-26 03:20:00,49.7,39.5,30.06,SW,222,0.0,0.0,68,0.00,,---,0.00,VWS V14.01,2013-01-26 09:20:00,
2013-01-26 03:25:00,49.5,39.4,30.06,SW,222,0.0,0.0,68,0.00,,---,0.00,VWS V14.01,2013-01-26 09:25:00,
2013-01-26 03:30:00,49.5,39.4,30.06,SW,222,0.0,0.0,68,0.00,,---,0.00,VWS V14.01,2013-01-26 09:30:00,
2013-01-26 03:35:00,48.9,38.9,30.06,SW,222,0.0,0.0,68,0.00,,---,0.00,VWS V14.01,2013-01-26 09:35:00,
2013-01-26 03:40:00,48.9,38.9,30.06,SW,222,0.0,0.0,68,0.00,,---,0.00,VWS V14.01,2013-01-26 09:40:00,
2013-01-26 03:45:00,48.9,38.9,30.06,SW,222,0.0,0.0,68,0.00,,---,0.00,VWS V14.01,2013-01-26 09:45:00,
2013-01-26 03:50:00,48.4,38.3,30.06,SW,222,0.0,0.0,68,0.00,,---,0.00,VWS V14.01,2013-01-26 09:50:00,
2013-01-26 03:55:00,48.4,38.3,30.06,SW,222,0.0,0.0,68,0.00,,---,0.00,VWS V14.01,2013-01-26 09:55:00,
2013-01-26 04:00:00,48.2,38.5,30.06,SW,222,0.0,0.0,69,0.00,,---,0.00,VWS V14.01,2013-01-26 10:00:00,
2013-01-26 04:05:00,48.2,38.5,30.06,SW,222,0.0,0.0,69,0.00,,---,0.00,VWS V14.01,2013-01-26 10:05:00,
2013-01-26 04:10:00,48.2,38.5,30.06,SW,222,0.0,0.0,69,0.00,,---,0.00,VWS V14.01,2013-01-26 10:10:00,
2013-01-26 04:15:00,48.0,38.4,30.06,SW,222,0.0,0.0,69,0.00,,---,0.00,VWS V14.01,2013-01-26 10:15:00,
2013-01-26 04:20:00,48.0,38.7,30.06,SW,222,0.0,0.0,70,0.00,,---,0.00,VWS V14.01,2013-01-26 10:20:00,
2013-01-26 04:25:00,48.2,38.9,30.06,SW,222,0.0,0.0,70,0.00,,---,0.00,VWS V14.01,2013-01-26 10:25:00,
2013-01-26 04:30:00,48.2,38.9,30.06,SW,222,0.0,0.0,70,0.00,,---,0.00,VWS V14.01,2013-01-26 10:30:00,
2013-01-26 04:35:00,48.2,38.9,30.06,SW,222,0.0,0.0,70,0.00,,---,0.00,VWS V14.01,2013-01-26 10:35:00,
2013-01-26 04:40:00,48.2,38.9,30.06,SW,222,0.0,0.0,70,0.00,,---,0.00,VWS V14.01,2013-01-26 10:40:00,
2013-01-26 04:45:00,48.2,38.9,30.06,SW,222,0.0,0.0,70,0.00,,---,0.00,VWS V14.01,2013-01-26 10:45:00,
2013-01-26 04:50:00,48.2,38.9,30.06,SW,222,0.0,0.0,70,0.00,,---,0.00,VWS V14.01,2013-01-26 10:50:00,
2013-01-26 04:55:00,48.0,38.7,30.06,SW,222,0.0,0.0,70,0.00,,---,0.00,VWS V14.01,2013-01-26 10:55:00,
2013-01-26 05:00:00,48.0,38.7,30.06,SW,222,0.0,0.0,70,0.00,,---,0.00,VWS V14.01,2013-01-26 11:00:00,
2013-01-26 05:05:00,47.9,38.6,30.06,SW,222,0.0,0.0,70,0.00,,---,0.00,VWS V14.01,2013-01-26 11:05:00,
2013-01-26 05:10:00,47.7,38.4,30.06,SW,222,0.0,0.0,70,0.00,,---,0.00,VWS V14.01,2013-01-26 11:10:00,
2013-01-26 05:15:00,47.7,38.4,30.06,SW,222,0.0,0.0,70,0.00,,---,0.00,VWS V14.01,2013-01-26 11:15:00,
2013-01-26 05:20:00,47.7,38.4,30.06,SW,222,0.0,0.0,70,0.00,,---,0.00,VWS V14.01,2013-01-26 11:20:00,
2013-01-26 05:25:00,47.7,38.4,30.06,SW,222,0.0,0.0,70,0.00,,---,0.00,VWS V14.01,2013-01-26 11:25:00,
2013-01-26 05:30:00,47.5,38.6,30.06,SW,222,0.0,0.0,71,0.00,,---,0.00,VWS V14.01,2013-01-26 11:30:00,
2013-01-26 05:35:00,47.5,38.6,30.06,SW,222,0.0,0.0,71,0.00,,---,0.00,VWS V14.01,2013-01-26 11:35:00,
2013-01-26 05:40:00,47.5,38.6,30.06,SW,222,0.0,0.0,71,0.00,,---,0.00,VWS V14.01,2013-01-26 11:40:00,
2013-01-26 05:45:00,47.5,38.6,30.09,SW,222,0.0,0.0,71,0.00,,---,0.00,VWS V14.01,2013-01-26 11:45:00,
2013-01-26 05:50:00,47.3,38.4,30.09,SW,222,0.0,0.0,71,0.00,,---,0.00,VWS V14.01,2013-01-26 11:50:00,
2013-01-26 05:55:00,47.3,38.4,30.09,SW,222,0.0,0.0,71,0.00,,---,0.00,VWS V14.01,2013-01-26 11:55:00,
2013-01-26 06:00:00,47.3,38.4,30.09,SW,222,0.0,0.0,71,0.00,,---,0.00,VWS V14.01,2013-01-26 12:00:00,
2013-01-26 06:05:00,47.5,38.6,30.09,SW,222,0.0,0.0,71,0.00,,---,0.00,VWS V14.01,2013-01-26 12:05:00,
2013-01-26 06:10:00,47.7,39.1,30.09,SW,222,0.0,0.0,72,0.00,,---,0.00,VWS V14.01,2013-01-26 12:10:00,
2013-01-26 06:15:00,47.9,39.3,30.09,SW,222,0.0,0.0,72,0.00,,---,0.00,VWS V14.01,2013-01-26 12:15:00,
2013-01-26 06:20:00,47.9,39.3,30.09,SW,222,0.0,0.0,72,0.00,,---,0.00,VWS V14.01,2013-01-26 12:20:00,
2013-01-26 06:25:00,48.6,40.0,30.09,SW,222,0.0,0.0,72,0.00,,---,0.00,VWS V14.01,2013-01-26 12:25:00,
2013-01-26 06:30:00,48.6,40.0,30.09,NW,304,0.0,0.0,72,0.00,,---,0.00,VWS V14.01,2013-01-26 12:30:00,
2013-01-26 06:35:00,50.0,42.1,30.09,NW,304,0.0,0.0,74,0.00,,---,0.00,VWS V14.01,2013-01-26 12:35:00,
2013-01-26 06:40:00,50.6,41.9,30.09,NW,304,0.0,0.0,72,0.00,,---,0.00,VWS V14.01,2013-01-26 12:40:00,
2013-01-26 06:45:00,50.6,41.9,30.09,NW,304,0.0,0.0,72,0.00,,---,0.00,VWS V14.01,2013-01-26 12:45:00,
2013-01-26 06:50:00,50.6,41.9,30.09,NW,304,0.0,0.0,72,0.00,,---,0.00,VWS V14.01,2013-01-26 12:50:00,
2013-01-26 06:55:00,50.4,41.3,30.09,NW,304,0.0,0.0,71,0.00,,---,0.00,VWS V14.01,2013-01-26 12:55:00,
2013-01-26 07:00:00,50.2,41.2,30.09,NW,304,0.0,0.0,71,0.00,,---,0.00,VWS V14.01,2013-01-26 13:00:00,
2013-01-26 07:05:00,50.0,41.4,30.12,NW,304,0.0,0.0,72,0.00,,---,0.00,VWS V14.01,2013-01-26 13:05:00,
2013-01-26 07:10:00,50.0,41.4,30.12,NW,304,0.0,0.0,72,0.00,,---,0.00,VWS V14.01,2013-01-26 13:10:00,
2013-01-26 07:15:00,50.0,41.4,30.12,NW,304,0.0,0.0,72,0.00,,---,0.00,VWS V14.01,2013-01-26 13:15:00,
2013-01-26 07:20:00,50.6,42.2,30.12,NW,304,0.0,0.0,73,0.00,,---,0.00,VWS V14.01,2013-01-26 13:20:00,
2013-01-26 07:25:00,52.9,45.5,30.12,NW,304,0.0,0.0,76,0.00,,---,0.00,VWS V14.01,2013-01-26 13:25:00,
2013-01-26 07:30:00,53.8,46.1,30.12,NW,304,0.0,0.0,75,0.00,,---,0.00,VWS V14.01,2013-01-26 13:30:00,
2013-01-26 07:35:00,54.0,46.2,30.12,WSW,256,0.0,0.0,75,0.00,,---,0.00,VWS V14.01,2013-01-26 13:35:00,
2013-01-26 07:40:00,55.1,46.9,30.12,WSW,256,0.0,0.0,74,0.00,,---,0.00,VWS V14.01,2013-01-26 13:40:00,
2013-01-26 07:45:00,55.6,47.5,30.12,WSW,256,0.0,0.0,74,0.00,,---,0.00,VWS V14.01,2013-01-26 13:45:00,
2013-01-26 07:50:00,56.5,48.3,30.12,West,259,0.0,0.0,74,0.00,,---,0.00,VWS V14.01,2013-01-26 13:50:00,
2013-01-26 07:55:00,56.9,48.7,30.12,WSW,243,0.0,0.0,74,0.00,,---,0.00,VWS V14.01,2013-01-26 13:55:00,
2013-01-26 08:00:00,57.4,49.2,30.12,West,280,0.0,0.0,74,0.00,,---,0.00,VWS V14.01,2013-01-26 14:00:00,
2013-01-26 08:05:00,57.4,49.2,30.12,WNW,297,3.1,3.1,74,0.00,,---,0.00,VWS V14.01,2013-01-26 14:05:00,
2013-01-26 08:10:00,58.1,49.9,30.12,WNW,286,3.1,3.1,74,0.00,,---,0.00,VWS V14.01,2013-01-26 14:10:00,
2013-01-26 08:15:00,58.5,50.6,30.12,WSW,250,2.2,2.2,75,0.00,,---,0.00,VWS V14.01,2013-01-26 14:15:00,
2013-01-26 08:20:00,58.7,50.8,30.12,West,274,0.0,0.0,75,0.00,,---,0.00,VWS V14.01,2013-01-26 14:20:00,
2013-01-26 08:25:00,58.7,50.8,30.12,West,274,0.0,0.0,75,0.00,,---,0.00,VWS V14.01,2013-01-26 14:25:00,
2013-01-26 08:30:00,58.7,50.8,30.12,West,273,0.0,0.0,75,0.00,,---,0.00,VWS V14.01,2013-01-26 14:30:00,
2013-01-26 08:35:00,59.0,51.1,30.12,NW,319,0.0,0.0,75,0.00,,---,0.00,VWS V14.01,2013-01-26 14:35:00,
2013-01-26 08:40:00,59.2,51.3,30.12,NNW,339,0.0,0.0,75,0.00,,---,0.00,VWS V14.01,2013-01-26 14:40:00,
2013-01-26 08:45:00,59.2,51.3,30.12,WSW,254,0.0,0.0,75,0.00,,---,0.00,VWS V14.01,2013-01-26 14:45:00,
2013-01-26 08:50:00,59.2,51.3,30.12,North,1,0.0,0.0,75,0.00,,---,0.00,VWS V14.01,2013-01-26 14:50:00,
2013-01-26 08:55:00,61.5,54.3,30.12,North,1,0.0,0.0,77,0.00,,---,0.00,VWS V14.01,2013-01-26 14:55:00,
2013-01-26 09:00:00,62.3,55.3,30.12,West,265,0.0,0.0,78,0.00,,---,0.00,VWS V14.01,2013-01-26 15:00:00,
2013-01-26 09:05:00,62.3,55.3,30.12,NW,322,0.0,0.0,78,0.00,,---,0.00,VWS V14.01,2013-01-26 15:05:00,
2013-01-26 09:10:00,62.3,55.3,30.12,West,260,0.0,0.0,78,0.00,,---,0.00,VWS V14.01,2013-01-26 15:10:00,
2013-01-26 09:15:00,62.3,55.3,30.12,NNE,12,0.0,0.0,78,0.00,,---,0.00,VWS V14.01,2013-01-26 15:15:00,
2013-01-26 09:20:00,65.9,59.2,30.12,NW,318,0.0,0.0,79,0.00,,---,0.00,VWS V14.01,2013-01-26 15:20:00,
2013-01-26 09:25:00,66.8,59.7,30.12,NW,318,0.0,0.0,78,0.00,,---,0.00,VWS V14.01,2013-01-26 15:25:00,
2013-01-26 09:30:00,66.8,59.3,30.15,NNE,16,2.7,2.7,77,0.00,,---,0.00,VWS V14.01,2013-01-26 15:30:00,
2013-01-26 09:35:00,66.6,59.2,30.15,NNE,16,0.0,0.0,77,0.00,,---,0.00,VWS V14.01,2013-01-26 15:35:00,
2013-01-26 09:40:00,66.6,59.2,30.15,NNW,328,0.0,0.0,77,0.00,,---,0.00,VWS V14.01,2013-01-26 15:40:00,
2013-01-26 09:45:00,66.8,59.7,30.15,NW,313,0.0,0.0,78,0.00,,---,0.00,VWS V14.01,2013-01-26 15:45:00,
2013-01-26 09:50:00,67.1,60.0,30.15,NW,313,0.0,0.0,78,0.00,,---,0.00,VWS V14.01,2013-01-26 15:50:00,
2013-01-26 09:55:00,68.4,61.6,30.15,NNW,338,0.0,0.0,79,0.00,,---,0.00,VWS V14.01,2013-01-26 15:55:00,
2013-01-26 10:00:00,68.9,62.2,30.12,North,1,3.1,3.1,79,0.00,,---,0.00,VWS V14.01,2013-01-26 16:00:00,
2013-01-26 10:05:00,68.9,62.2,30.12,NNE,14,0.0,0.0,79,0.00,,---,0.00,VWS V14.01,2013-01-26 16:05:00,
2013-01-26 10:10:00,68.2,59.6,30.12,NNE,14,0.0,0.0,74,0.00,,---,0.00,VWS V14.01,2013-01-26 16:10:00,
2013-01-26 10:15:00,68.2,59.2,30.12,NNW,328,4.0,4.0,73,0.00,,---,0.00,VWS V14.01,2013-01-26 16:15:00,
2013-01-26 10:20:00,68.7,57.8,30.12,NNE,19,2.7,2.7,68,0.00,,---,0.00,VWS V14.01,2013-01-26 16:20:00,
2013-01-26 10:25:00,68.2,53.8,30.12,West,270,2.7,2.7,60,0.00,,---,0.00,VWS V14.01,2013-01-26 16:25:00,
2013-01-26 10:30:00,68.2,53.8,30.12,West,270,2.7,2.7,60,0.00,,---,0.00,VWS V14.01,2013-01-26 16:30:00,
2013-01-26 10:35:00,67.7,44.4,30.12,West,272,4.9,4.9,43,0.00,,---,0.00,VWS V14.01,2013-01-26 16:35:00,
2013-01-26 10:40:00,67.7,44.4,30.12,West,272,4.9,4.9,43,0.00,,---,0.00,VWS V14.01,2013-01-26 16:40:00,
2013-01-26 10:45:00,67.3,40.8,30.12,NW,305,2.7,2.7,38,0.00,,---,0.00,VWS V14.01,2013-01-26 16:45:00,
2013-01-26 10:50:00,67.5,41.0,30.12,NNW,345,2.7,2.7,38,0.00,,---,0.00,VWS V14.01,2013-01-26 16:50:00,
2013-01-26 10:55:00,67.7,40.5,30.12,NNW,345,2.7,2.7,37,0.00,,---,0.00,VWS V14.01,2013-01-26 16:55:00,
2013-01-26 11:00:00,68.4,41.1,30.12,NW,310,2.2,2.2,37,0.00,,---,0.00,VWS V14.01,2013-01-26 17:00:00,
2013-01-26 11:05:00,68.9,40.2,30.12,NW,310,2.2,2.2,35,0.00,,---,0.00,VWS V14.01,2013-01-26 17:05:00,
2013-01-26 11:10:00,70.7,39.4,30.12,West,259,0.0,0.0,32,0.00,,---,0.00,VWS V14.01,2013-01-26 17:10:00,
2013-01-26 11:15:00,71.1,38.1,30.12,WNW,284,2.7,2.7,30,0.00,,---,0.00,VWS V14.01,2013-01-26 17:15:00,
2013-01-26 11:20:00,71.1,38.1,30.12,SW,222,3.1,3.1,30,0.00,,---,0.00,VWS V14.01,2013-01-26 17:20:00,
2013-01-26 11:25:00,71.3,33.7,30.12,SSW,209,5.4,5.4,25,0.00,,---,0.00,VWS V14.01,2013-01-26 17:25:00,
2013-01-26 11:30:00,71.3,31.6,30.12,SSW,209,5.4,5.4,23,0.00,,---,0.00,VWS V14.01,2013-01-26 17:30:00,
2013-01-26 11:35:00,70.9,30.2,30.12,SSW,209,5.4,5.4,22,0.00,,---,0.00,VWS V14.01,2013-01-26 17:35:00,
2013-01-26 11:40:00,71.3,31.6,30.12,SSW,209,6.3,6.3,23,0.00,,---,0.00,VWS V14.01,2013-01-26 17:40:00,
2013-01-26 11:45:00,71.6,31.9,30.12,SW,231,8.1,8.1,23,0.00,,---,0.00,VWS V14.01,2013-01-26 17:45:00,
2013-01-26 11:50:00,71.6,31.9,30.12,SSE,168,6.3,6.3,23,0.00,,---,0.00,VWS V14.01,2013-01-26 17:50:00,
2013-01-26 11:55:00,72.0,30.0,30.12,SSW,209,0.0,0.0,21,0.00,,---,0.00,VWS V14.01,2013-01-26 17:55:00,
2013-01-26 12:00:00,71.8,29.8,30.09,SSW,209,0.0,0.0,21,0.00,,---,0.00,VWS V14.01,2013-01-26 18:00:00,
2013-01-26 12:05:00,72.2,30.1,30.09,SW,224,4.9,4.9,21,0.00,,---,0.00,VWS V14.01,2013-01-26 18:05:00,
2013-01-26 12:10:00,72.7,30.5,30.09,SW,224,4.9,4.9,21,0.00,,---,0.00,VWS V14.01,2013-01-26 18:10:00,
2013-01-26 12:15:00,72.7,30.5,30.09,NW,304,2.7,2.7,21,0.00,,---,0.00,VWS V14.01,2013-01-26 18:15:00,
2013-01-26 12:20:00,73.1,29.6,30.09,West,259,4.9,4.9,20,0.00,,---,0.00,VWS V14.01,2013-01-26 18:20:00,
2013-01-26 12:25:00,72.9,29.5,30.09,West,279,3.1,3.1,20,0.00,,---,0.00,VWS V14.01,2013-01-26 18:25:00,
2013-01-26 12:30:00,72.5,30.4,30.09,SW,233,2.7,2.7,21,0.00,,---,0.00,VWS V14.01,2013-01-26 18:30:00,
2013-01-26 12:35:00,73.4,29.9,30.09,South,187,4.5,4.5,20,0.00,,---,0.00,VWS V14.01,2013-01-26 18:35:00,
2013-01-26 12:40:00,73.4,29.9,30.09,South,190,4.0,4.0,20,0.00,,---,0.00,VWS V14.01,2013-01-26 18:40:00,
2013-01-26 12:45:00,73.6,30.1,30.09,SW,216,3.1,3.1,20,0.00,,---,0.00,VWS V14.01,2013-01-26 18:45:00,
2013-01-26 12:50:00,73.6,30.1,30.09,WSW,248,7.6,7.6,20,0.00,,---,0.00,VWS V14.01,2013-01-26 18:50:00,
2013-01-26 12:55:00,73.4,29.9,30.09,SW,230,2.2,2.2,20,0.00,,---,0.00,VWS V14.01,2013-01-26 18:55:00,
2013-01-26 13:00:00,73.2,29.8,30.09,West,267,0.0,5.4,20,0.00,,---,0.00,VWS V14.01,2013-01-26 19:00:00,
2013-01-26 13:05:00,73.2,29.8,30.06,WSW,248,8.1,8.1,20,0.00,,---,0.00,VWS V14.01,2013-01-26 19:05:00,
2013-01-26 13:10:00,73.2,29.8,30.06,SSW,193,5.4,5.4,20,0.00,,---,0.00,VWS V14.01,2013-01-26 19:10:00,
2013-01-26 13:15:00,72.9,29.5,30.06,WSW,252,5.8,5.8,20,0.00,,---,0.00,VWS V14.01,2013-01-26 19:15:00,
2013-01-26 13:20:00,73.4,29.9,30.06,West,260,6.3,6.3,20,0.00,,---,0.00,VWS V14.01,2013-01-26 19:20:00,
2013-01-26 13:25:00,73.4,29.9,30.06,SW,218,2.7,2.7,20,0.00,,---,0.00,VWS V14.01,2013-01-26 19:25:00,
2013-01-26 13:30:00,73.6,28.8,30.06,South,169,4.9,4.9,19,0.00,,---,0.00,VWS V14.01,2013-01-26 19:30:00,
2013-01-26 13:35:00,72.7,29.4,30.06,West,281,5.8,5.8,20,0.00,,---,0.00,VWS V14.01,2013-01-26 19:35:00,
2013-01-26 13:40:00,72.5,29.2,30.06,West,262,7.6,7.6,20,0.00,,---,0.00,VWS V14.01,2013-01-26 19:40:00,
2013-01-26 13:45:00,73.1,29.6,30.06,NNW,327,5.4,5.4,20,0.00,,---,0.00,VWS V14.01,2013-01-26 19:45:00,
2013-01-26 13:50:00,73.4,29.9,30.06,WSW,246,4.9,4.9,20,0.00,,---,0.00,VWS V14.01,2013-01-26 19:50:00,
2013-01-26 13:55:00,73.4,29.9,30.06,SW,236,2.7,2.7,20,0.00,,---,0.00,VWS V14.01,2013-01-26 19:55:00,
2013-01-26 14:00:00,72.5,29.2,30.06,South,191,5.8,5.8,20,0.00,,---,0.00,VWS V14.01,2013-01-26 20:00:00,
2013-01-26 14:05:00,70.4,28.6,30.06,WSW,241,2.2,2.2,21,0.00,,---,0.00,VWS V14.01,2013-01-26 20:05:00,
2013-01-26 14:10:00,69.6,29.1,30.06,SW,217,2.7,2.7,22,0.00,,---,0.00,VWS V14.01,2013-01-26 20:10:00,
2013-01-26 14:15:00,69.6,29.1,30.06,West,261,3.1,3.1,22,0.00,,---,0.00,VWS V14.01,2013-01-26 20:15:00,
2013-01-26 14:20:00,70.2,29.6,30.06,WSW,251,8.1,8.1,22,0.00,,---,0.00,VWS V14.01,2013-01-26 20:20:00,
2013-01-26 14:25:00,70.4,28.6,30.06,South,190,8.1,8.1,21,0.00,,---,0.00,VWS V14.01,2013-01-26 20:25:00,
2013-01-26 14:30:00,70.4,28.6,30.06,SW,228,3.6,3.6,21,0.00,,---,0.00,VWS V14.01,2013-01-26 20:30:00,
2013-01-26 14:35:00,70.4,28.6,30.06,WSW,255,3.1,3.1,21,0.00,,---,0.00,VWS V14.01,2013-01-26 20:35:00,
2013-01-26 14:40:00,71.6,29.6,30.06,SSW,211,4.0,4.0,21,0.00,,---,0.00,VWS V14.01,2013-01-26 20:40:00,
2013-01-26 14:45:00,71.4,29.5,30.06,West,264,4.9,4.9,21,0.00,,---,0.00,VWS V14.01,2013-01-26 20:45:00,
2013-01-26 14:50:00,71.4,29.5,30.06,South,170,2.2,2.2,21,0.00,,---,0.00,VWS V14.01,2013-01-26 20:50:00,
2013-01-26 14:55:00,72.0,30.0,30.06,SW,234,4.0,4.0,21,0.00,,---,0.00,VWS V14.01,2013-01-26 20:55:00,
2013-01-26 15:00:00,72.0,30.0,30.06,West,271,4.9,4.9,21,0.00,,---,0.00,VWS V14.01,2013-01-26 21:00:00,
2013-01-26 15:05:00,71.1,29.2,30.06,West,262,0.0,0.0,21,0.00,,---,0.00,VWS V14.01,2013-01-26 21:05:00,
2013-01-26 15:10:00,70.4,28.6,30.06,West,261,5.4,5.4,21,0.00,,---,0.00,VWS V14.01,2013-01-26 21:10:00,
2013-01-26 15:15:00,69.8,28.1,30.06,NNW,327,3.6,3.6,21,0.00,,---,0.00,VWS V14.01,2013-01-26 21:15:00,
2013-01-26 15:20:00,69.8,28.1,30.06,WNW,301,3.1,3.1,21,0.00,,---,0.00,VWS V14.01,2013-01-26 21:20:00,
2013-01-26 15:25:00,70.0,28.3,30.06,North,2,0.0,0.0,21,0.00,,---,0.00,VWS V14.01,2013-01-26 21:25:00,
2013-01-26 15:30:00,70.0,28.3,30.06,WNW,285,0.0,0.0,21,0.00,,---,0.00,VWS V14.01,2013-01-26 21:30:00,
2013-01-26 15:35:00,69.6,29.1,30.06,WSW,257,0.0,0.0,22,0.00,,---,0.00,VWS V14.01,2013-01-26 21:35:00,
2013-01-26 15:40:00,69.5,29.0,30.06,NNW,336,0.0,0.0,22,0.00,,---,0.00,VWS V14.01,2013-01-26 21:40:00,
2013-01-26 15:45:00,69.1,28.7,30.06,NW,321,0.0,0.0,22,0.00,,---,0.00,VWS V14.01,2013-01-26 21:45:00,
2013-01-26 15:50:00,69.1,28.7,30.06,NW,321,0.0,0.0,22,0.00,,---,0.00,VWS V14.01,2013-01-26 21:50:00,
2013-01-26 15:55:00,68.4,28.1,30.06,NW,322,0.0,0.0,22,0.00,,---,0.00,VWS V14.01,2013-01-26 21:55:00,
2013-01-26 16:00:00,68.4,28.1,30.06,NW,322,0.0,0.0,22,0.00,,---,0.00,VWS V14.01,2013-01-26 22:00:00,
2013-01-26 16:05:00,67.8,28.7,30.06,NNW,332,0.0,0.0,23,0.00,,---,0.00,VWS V14.01,2013-01-26 22:05:00,
2013-01-26 16:10:00,67.8,28.7,30.06,NNW,338,0.0,0.0,23,0.00,,---,0.00,VWS V14.01,2013-01-26 22:10:00,
2013-01-26 16:15:00,67.3,28.3,30.06,NW,312,0.0,0.0,23,0.00,,---,0.00,VWS V14.01,2013-01-26 22:15:00,
2013-01-26 16:20:00,66.9,28.0,30.06,NW,312,0.0,0.0,23,0.00,,---,0.00,VWS V14.01,2013-01-26 22:20:00,
2013-01-26 16:25:00,66.9,28.0,30.06,WNW,283,0.0,0.0,23,0.00,,---,0.00,VWS V14.01,2013-01-26 22:25:00,
2013-01-26 16:30:00,66.6,28.7,30.06,WNW,283,0.0,0.0,24,0.00,,---,0.00,VWS V14.01,2013-01-26 22:30:00,
2013-01-26 16:35:00,66.6,28.7,30.06,WNW,294,0.0,0.0,24,0.00,,---,0.00,VWS V14.01,2013-01-26 22:35:00,
2013-01-26 16:39:00,66.6,29.7,30.06,WNW,294,0.0,0.0,25,0.00,,---,0.00,VWS V14.01,2013-01-26 22:39:00,
2013-01-26 16:44:00,66.6,29.7,30.06,WNW,294,0.0,0.0,25,0.00,,---,0.00,VWS V14.01,2013-01-26 22:44:00,
2013-01-26 16:49:00,66.6,29.7,30.06,WNW,294,0.0,0.0,25,0.00,,---,0.00,VWS V14.01,2013-01-26 22:49:00,
2013-01-26 16:54:00,66.4,29.5,30.06,WNW,294,0.0,0.0,25,0.00,,---,0.00,VWS V14.01,2013-01-26 22:54:00,
2013-01-26 16:59:00,66.4,29.5,30.06,WNW,294,0.0,0.0,25,0.00,,---,0.00,VWS V14.01,2013-01-26 22:59:00,
2013-01-26 17:04:00,65.9,30.0,30.06,WNW,294,0.0,0.0,26,0.00,,---,0.00,VWS V14.01,2013-01-26 23:04:00,
2013-01-26 17:09:00,65.9,30.0,30.06,WNW,294,0.0,0.0,26,0.00,,---,0.00,VWS V14.01,2013-01-26 23:09:00,
2013-01-26 17:14:00,65.9,30.0,30.09,WNW,294,0.0,0.0,26,0.00,,---,0.00,VWS V14.01,2013-01-26 23:14:00,
2013-01-26 17:19:00,65.0,29.3,30.09,WNW,294,0.0,0.0,26,0.00,,---,0.00,VWS V14.01,2013-01-26 23:19:00,
2013-01-26 17:24:00,65.0,29.3,30.09,WNW,294,0.0,0.0,26,0.00,,---,0.00,VWS V14.01,2013-01-26 23:24:00,
2013-01-26 17:29:00,64.1,29.4,30.09,WNW,294,0.0,0.0,27,0.00,,---,0.00,VWS V14.01,2013-01-26 23:29:00,
2013-01-26 17:34:00,64.1,29.4,30.09,WNW,294,0.0,0.0,27,0.00,,---,0.00,VWS V14.01,2013-01-26 23:34:00,
2013-01-26 17:39:00,63.2,29.5,30.09,WNW,294,0.0,0.0,28,0.00,,---,0.00,VWS V14.01,2013-01-26 23:39:00,
2013-01-26 17:44:00,63.2,29.5,30.09,WNW,294,0.0,0.0,28,0.00,,---,0.00,VWS V14.01,2013-01-26 23:44:00,
2013-01-26 17:49:00,62.6,29.9,30.09,WNW,294,0.0,0.0,29,0.00,,---,0.00,VWS V14.01,2013-01-26 23:49:00,
2013-01-26 17:54:00,61.9,31.0,30.09,WNW,294,0.0,0.0,31,0.00,,---,0.00,VWS V14.01,2013-01-26 23:54:00,
2013-01-26 17:59:00,61.7,31.6,30.09,WNW,294,0.0,0.0,32,0.00,,---,0.00,VWS V14.01,2013-01-26 23:59:00,
2013-01-26 18:04:00,61.7,31.6,30.09,WNW,294,0.0,0.0,32,0.00,,---,0.00,VWS V14.01,2013-01-27 00:04:00,
2013-01-26 18:09:00,61.7,31.6,30.09,WNW,294,0.0,0.0,32,0.00,,---,0.00,VWS V14.01,2013-01-27 00:09:00,
2013-01-26 18:14:00,61.5,32.2,30.09,WNW,294,0.0,0.0,33,0.00,,---,0.00,VWS V14.01,2013-01-27 00:14:00,
2013-01-26 18:19:00,61.5,32.9,30.09,West,261,0.0,0.0,34,0.00,,---,0.00,VWS V14.01,2013-01-27 00:19:00,
2013-01-26 18:24:00,61.5,32.9,30.09,West,261,0.0,0.0,34,0.00,,---,0.00,VWS V14.01,2013-01-27 00:24:00,
2013-01-26 18:29:00,61.5,32.9,30.09,West,261,0.0,0.0,34,0.00,,---,0.00,VWS V14.01,2013-01-27 00:29:00,
2013-01-26 18:34:00,61.5,32.9,30.09,West,261,0.0,0.0,34,0.00,,---,0.00,VWS V14.01,2013-01-27 00:34:00,
2013-01-26 18:39:00,61.0,33.2,30.09,West,261,0.0,0.0,35,0.00,,---,0.00,VWS V14.01,2013-01-27 00:39:00,
2013-01-26 18:44:00,61.0,33.2,30.09,West,261,0.0,0.0,35,0.00,,---,0.00,VWS V14.01,2013-01-27 00:44:00,
2013-01-26 18:49:00,60.5,33.4,30.09,West,261,0.0,0.0,36,0.00,,---,0.00,VWS V14.01,2013-01-27 00:49:00,
2013-01-26 18:54:00,60.5,33.4,30.09,West,261,0.0,0.0,36,0.00,,---,0.00,VWS V14.01,2013-01-27 00:54:00,
2013-01-26 18:59:00,60.5,33.4,30.09,West,261,0.0,0.0,36,0.00,,---,0.00,VWS V14.01,2013-01-27 00:59:00,
2013-01-26 19:04:00,59.7,33.4,30.09,West,261,0.0,0.0,37,0.00,,---,0.00,VWS V14.01,2013-01-27 01:04:00,
2013-01-26 19:09:00,59.4,33.1,30.09,West,261,0.0,0.0,37,0.00,,---,0.00,VWS V14.01,2013-01-27 01:09:00,
2013-01-26 19:14:00,58.8,33.3,30.09,West,261,0.0,0.0,38,0.00,,---,0.00,VWS V14.01,2013-01-27 01:14:00,
2013-01-26 19:19:00,58.8,33.3,30.09,West,261,0.0,0.0,38,0.00,,---,0.00,VWS V14.01,2013-01-27 01:19:00,
2013-01-26 19:24:00,58.8,33.3,30.09,West,261,0.0,0.0,38,0.00,,---,0.00,VWS V14.01,2013-01-27 01:24:00,
2013-01-26 19:29:00,57.8,33.0,30.09,West,261,0.0,0.0,39,0.00,,---,0.00,VWS V14.01,2013-01-27 01:29:00,
2013-01-26 19:34:00,57.6,32.8,30.09,West,261,0.0,0.0,39,0.00,,---,0.00,VWS V14.01,2013-01-27 01:34:00,
2013-01-26 19:39:00,57.2,33.1,30.09,West,261,0.0,0.0,40,0.00,,---,0.00,VWS V14.01,2013-01-27 01:39:00,
2013-01-26 19:44:00,56.9,33.4,30.09,West,261,0.0,0.0,41,0.00,,---,0.00,VWS V14.01,2013-01-27 01:44:00,
2013-01-26 19:49:00,56.9,33.4,30.09,West,261,0.0,0.0,41,0.00,,---,0.00,VWS V14.01,2013-01-27 01:49:00,
2013-01-26 19:54:00,56.5,33.7,30.09,West,261,0.0,0.0,42,0.00,,---,0.00,VWS V14.01,2013-01-27 01:54:00,
2013-01-26 19:59:00,56.3,33.5,30.09,West,261,0.0,0.0,42,0.00,,---,0.00,VWS V14.01,2013-01-27 01:59:00,
2013-01-26 20:04:00,56.1,34.0,30.09,West,261,0.0,0.0,43,0.00,,---,0.00,VWS V14.01,2013-01-27 02:04:00,
2013-01-26 20:09:00,56.1,34.0,30.09,West,261,0.0,0.0,43,0.00,,---,0.00,VWS V14.01,2013-01-27 02:09:00,
2013-01-26 20:14:00,55.8,33.6,30.12,West,261,0.0,0.0,43,0.00,,---,0.00,VWS V14.01,2013-01-27 02:14:00,
2013-01-26 20:19:00,55.4,33.9,30.12,West,261,0.0,0.0,44,0.00,,---,0.00,VWS V14.01,2013-01-27 02:19:00,
2013-01-26 20:24:00,55.4,33.9,30.12,West,261,0.0,0.0,44,0.00,,---,0.00,VWS V14.01,2013-01-27 02:24:00,
2013-01-26 20:29:00,55.2,34.3,30.12,West,261,0.0,0.0,45,0.00,,---,0.00,VWS V14.01,2013-01-27 02:29:00,
2013-01-26 20:34:00,55.1,34.1,30.12,West,261,0.0,0.0,45,0.00,,---,0.00,VWS V14.01,2013-01-27 02:34:00,
2013-01-26 20:39:00,55.1,34.1,30.12,West,261,0.0,0.0,45,0.00,,---,0.00,VWS V14.01,2013-01-27 02:39:00,
2013-01-26 20:44:00,54.7,33.8,30.12,West,261,0.0,0.0,45,0.00,,---,0.00,VWS V14.01,2013-01-27 02:44:00,
2013-01-26 20:49:00,54.5,34.2,30.12,West,261,0.0,0.0,46,0.00,,---,0.00,VWS V14.01,2013-01-27 02:49:00,
2013-01-26 20:54:00,54.5,34.2,30.12,West,261,0.0,0.0,46,0.00,,---,0.00,VWS V14.01,2013-01-27 02:54:00,
2013-01-26 20:59:00,54.5,34.2,30.12,West,261,0.0,0.0,46,0.00,,---,0.00,VWS V14.01,2013-01-27 02:59:00,
2013-01-26 21:04:00,54.3,34.5,30.12,West,261,0.0,0.0,47,0.00,,---,0.00,VWS V14.01,2013-01-27 03:04:00,
2013-01-26 21:09:00,54.3,34.5,30.12,West,261,0.0,0.0,47,0.00,,---,0.00,VWS V14.01,2013-01-27 03:09:00,
2013-01-26 21:14:00,54.2,34.4,30.12,West,261,0.0,0.0,47,0.00,,---,0.00,VWS V14.01,2013-01-27 03:14:00,
2013-01-26 21:19:00,54.2,34.4,30.12,West,261,0.0,0.0,47,0.00,,---,0.00,VWS V14.01,2013-01-27 03:19:00,
2013-01-26 21:24:00,53.6,34.4,30.12,West,261,0.0,0.0,48,0.00,,---,0.00,VWS V14.01,2013-01-27 03:24:00,
2013-01-26 21:29:00,53.4,34.3,30.12,West,261,0.0,0.0,48,0.00,,---,0.00,VWS V14.01,2013-01-27 03:29:00,
2013-01-26 21:34:00,53.4,34.3,30.12,West,261,0.0,0.0,48,0.00,,---,0.00,VWS V14.01,2013-01-27 03:34:00,
2013-01-26 21:39:00,52.9,34.3,30.12,West,261,0.0,0.0,49,0.00,,---,0.00,VWS V14.01,2013-01-27 03:39:00,
2013-01-26 21:44:00,52.9,34.3,30.12,West,261,0.0,0.0,49,0.00,,---,0.00,VWS V14.01,2013-01-27 03:44:00,
2013-01-26 21:49:00,52.9,34.8,30.12,West,261,0.0,0.0,50,0.00,,---,0.00,VWS V14.01,2013-01-27 03:49:00,
2013-01-26 21:54:00,52.9,34.8,30.12,West,261,0.0,0.0,50,0.00,,---,0.00,VWS V14.01,2013-01-27 03:54:00,
2013-01-26 21:59:00,52.7,34.6,30.12,West,261,0.0,0.0,50,0.00,,---,0.00,VWS V14.01,2013-01-27 03:59:00,
2013-01-26 22:04:00,52.5,34.5,30.12,West,261,0.0,0.0,50,0.00,,---,0.00,VWS V14.01,2013-01-27 04:04:00,
2013-01-26 22:09:00,52.5,35.0,30.12,West,261,0.0,0.0,51,0.00,,---,0.00,VWS V14.01,2013-01-27 04:09:00,
2013-01-26 22:14:00,52.4,34.8,30.12,West,261,0.0,0.0,51,0.00,,---,0.00,VWS V14.01,2013-01-27 04:14:00,
2013-01-26 22:19:00,52.4,34.8,30.12,West,261,0.0,0.0,51,0.00,,---,0.00,VWS V14.01,2013-01-27 04:19:00,
2013-01-26 22:24:00,52.0,34.5,30.12,West,261,0.0,0.0,51,0.00,,---,0.00,VWS V14.01,2013-01-27 04:24:00,
2013-01-26 22:29:00,52.0,34.5,30.12,West,261,0.0,0.0,51,0.00,,---,0.00,VWS V14.01,2013-01-27 04:29:00,
2013-01-26 22:34:00,51.8,34.8,30.12,West,261,0.0,0.0,52,0.00,,---,0.00,VWS V14.01,2013-01-27 04:34:00,
2013-01-26 22:39:00,51.5,34.4,30.12,West,261,0.0,0.0,52,0.00,,---,0.00,VWS V14.01,2013-01-27 04:39:00,
2013-01-26 22:44:00,51.5,34.9,30.12,West,261,0.0,0.0,53,0.00,,---,0.00,VWS V14.01,2013-01-27 04:44:00,
2013-01-26 22:49:00,51.3,34.8,30.12,West,261,0.0,0.0,53,0.00,,---,0.00,VWS V14.01,2013-01-27 04:49:00,
2013-01-26 22:54:00,51.3,34.8,30.12,West,261,0.0,0.0,53,0.00,,---,0.00,VWS V14.01,2013-01-27 04:54:00,
2013-01-26 22:59:00,51.3,35.2,30.15,West,261,0.0,0.0,54,0.00,,---,0.00,VWS V14.01,2013-01-27 04:59:00,
2013-01-26 23:00:00,51.3,35.2,30.15,West,261,0.0,0.0,54,0.00,,---,0.00,VWS V14.01,2013-01-27 05:00:00,
2013-01-26 23:01:00,51.3,35.2,30.15,West,261,0.0,0.0,54,0.00,,---,0.00,VWS V14.01,2013-01-27 05:01:00,
2013-01-26 23:02:00,51.3,35.2,30.15,West,261,0.0,0.0,54,0.00,,---,0.00,VWS V14.01,2013-01-27 05:02:00,
2013-01-26 23:07:00,51.1,35.0,30.15,West,261,0.0,0.0,54,0.00,,---,0.00,VWS V14.01,2013-01-27 05:07:00,
2013-01-26 23:12:00,51.1,35.5,30.15,West,261,0.0,0.0,55,0.00,,---,0.00,VWS V14.01,2013-01-27 05:12:00,
2013-01-26 23:17:00,51.1,35.5,30.15,West,261,0.0,0.0,55,0.00,,---,0.00,VWS V14.01,2013-01-27 05:17:00,
2013-01-26 23:22:00,51.1,35.5,30.15,NE,48,0.0,0.0,55,0.00,,---,0.00,VWS V14.01,2013-01-27 05:22:00,
2013-01-26 23:27:00,51.1,35.5,30.12,NE,48,0.0,0.0,55,0.00,,---,0.00,VWS V14.01,2013-01-27 05:27:00,
2013-01-26 23:32:00,51.3,36.1,30.12,NE,48,0.0,0.0,56,0.00,,---,0.00,VWS V14.01,2013-01-27 05:32:00,
2013-01-26 23:37:00,51.3,36.1,30.12,NE,48,0.0,0.0,56,0.00,,---,0.00,VWS V14.01,2013-01-27 05:37:00,
2013-01-26 23:42:00,51.5,36.3,30.12,NE,48,0.0,0.0,56,0.00,,---,0.00,VWS V14.01,2013-01-27 05:42:00,
2013-01-26 23:47:00,51.3,36.6,30.12,NE,48,0.0,0.0,57,0.00,,---,0.00,VWS V14.01,2013-01-27 05:47:00,
2013-01-26 23:52:00,51.3,36.6,30.12,NE,48,0.0,0.0,57,0.00,,---,0.00,VWS V14.01,2013-01-27 05:52:00,
2013-01-26 23:57:00,51.3,36.6,30.12,NE,48,0.0,0.0,57,0.00,,---,0.00,VWS V14.01,2013-01-27 05:57:00,